Date,TemperatureHighF,TemperatureAvgF,TemperatureLowF,DewpointHighF,DewpointAvgF,DewpointLowF,HumidityHigh,HumidityAvg,HumidityLow,PressureMaxIn,PressureMinIn,WindSpeedMaxMPH,WindSpeedAvgMPH,GustSpeedMaxMPH,PrecipitationSumIn
2012-12-1,44,40,33,39,36,32,98,86,69,29.95,29.85,17,10,27,0.64
2012-12-2,43,39,29,36,33,24,98,80,67,29.92,29.57,27,16,45,0.35
2012-12-3,31,29,28,24,22,20,82,75,67,30.20,29.91,17,9,25,0.18
2012-12-4,38,33,28,36,28,20,98,85,64,30.22,30.12,21,14,30,0.18
2012-12-5,40,39,37,39,37,32,99,93,80,30.12,30.00,17,10,27,0.49
2012-12-6,39,35,29,35,29,-100,95,84,75,30.03,29.87,19,9,29,0.01
2012-12-7,31,28,24,24,20,15,89,73,54,30.00,29.78,20,14,29,0.00
2012-12-8,30,22,18,21,17,14,90,80,56,29.96,29.71,33,14,47,0.00
2012-12-9,20,17,12,15,6,-5,89,65,32,30.16,29.96,11,5,16,0.00
2012-12-10,27,21,16,26,18,6,95,88,60,30.12,29.96,15,6,25,0.00
2012-12-11,30,27,24,27,25,22,94,90,80,29.98,29.61,11,3,16,0.01
2012-12-12,36,32,29,28,25,22,93,75,64,29.76,29.55,15,6,22,0.01
2012-12-13,39,34,30,28,24,21,77,67,60,29.81,29.71,14,7,21,0.00
2012-12-14,35,30,24,27,23,18,95,77,53,29.71,29.53,13,6,18,0.00
2012-12-15,23,22,20,21,19,16,93,89,80,29.75,29.68,13,6,18,0.00
2012-12-16,27,24,20,26,20,17,95,88,71,29.75,29.66,22,10,34,0.00
2012-12-17,31,27,22,31,24,13,100,88,61,29.70,29.51,32,18,49,0.00
2012-12-18,21,17,14,15,11,7,87,77,68,29.75,29.67,23,8,32,0.00
2012-12-19,16,12,8,11,8,4,88,82,73,30.19,29.75,15,7,21,0.00
2012-12-20,22,16,10,7,3,-4,80,60,31,30.20,30.03,24,17,33,0.00
2012-12-21,31,26,19,9,6,3,54,43,33,30.03,29.90,24,19,35,0.00
2012-12-22,33,30,27,24,10,3,88,43,28,29.94,29.75,21,12,28,0.00
2012-12-23,28,27,24,27,23,20,96,86,71,29.98,29.70,17,9,25,0.00
2012-12-24,28,23,17,27,22,14,96,93,89,29.96,29.65,19,11,29,0.00
2012-12-25,18,16,14,16,14,11,90,88,82,30.04,29.78,19,9,27,0.00
2012-12-26,21,19,17,19,16,12,93,88,78,29.78,29.53,17,7,25,0.00
2012-12-27,20,18,17,18,16,14,91,90,89,29.93,29.62,10,5,14,0.00
2012-12-28,19,18,15,17,15,12,91,90,88,30.07,29.92,10,5,14,0.00
2012-12-29,16,14,12,14,11,9,91,86,77,30.06,29.85,12,8,19,0.00
2012-12-30,20,15,12,16,12,9,89,87,79,29.96,29.85,13,5,19,0.01